Regional Weather Roundup
Issued by NWS Mt. Holly, NJ

Home | Current Version | Previous Version | Text Only | Print | Product List | Glossary On
Versions: 1 2 3 4 5 6 7 8 9 10 11 12 13 14 15 16 17 18 19 20 21 22 23 24 25 26 27 28 29 30 31 32 33 34 35 36 37 38 39 40 41 42 43 44 45 46 47 48 49 50
000
ASUS41 KPHI 070612
RWRPHI

REGIONAL WEATHER ROUNDUP
NATIONAL WEATHER SERVICE MOUNT HOLLY NJ
200 AM EDT TUE JUL 07 2015

NOTE:  "FAIR" INDICATES FEW OR NO CLOUDS BELOW 12,000 FEET WITH NO
SIGNIFICANT WEATHER AND/OR OBSTRUCTIONS TO VISIBILITY.

 * = STATION DOES NOT REPORT PRECIPITATION (E.G. RAIN, SNOW, ETC.)
        OR FOG.

NJZ015>026-070700-
SOUTHERN NEW JERSEY

CITY           SKY/WX    TMP DP  RH WIND       PRES   REMARKS
POMONA         NOT AVBL
RIO GRANDE*    CLOUDY    75  72  88 S12G17    30.06S
MILLVILLE      CLOUDY    77  74  90 VRB5      30.05S
WRIGHTSTOWN    MOCLDY    73  73 100 SE3       30.02F
MOUNT HOLLY    MOCLDY    73  72  96 SE5       30.04F
TRENTON        CLOUDY    75  71  87 S9        30.04F
6HR MIN TEMP:  75; 6HR MAX TEMP:  77;


$$
NJZ001>014-070700-
NORTHERN NEW JERSEY

CITY           SKY/WX    TMP DP  RH WIND       PRES   REMARKS
SUSSEX         CLOUDY    72  67  84 CALM      30.06F
ANDOVER*         N/A     71  69  93 CALM      30.07F
MORRISTOWN     CLOUDY    72  68  88 CALM      30.06F
NEWARK         MOCLDY    75  70  83 E3        30.05F
TETERBORO      CLOUDY    76  70  82 SE5       30.05F
CALDWELL       CLOUDY    73  67  81 CALM      30.07F
SOMERVILLE     CLOUDY    71  69  93 N5        30.03F FOG
ALLAIRE*       CLOUDY    75  70  83 SE5       30.06F
TOMS RIVER*    CLOUDY    75  72  88 S6        30.06F

$$
PAZ043-044-047-054-055-060>062-066>071-070700-
EASTERN PENNSYLVANIA

CITY           SKY/WX    TMP DP  RH WIND       PRES   REMARKS
PHILADELPHIA   CLOUDY    76  72  87 SE7       30.03F
6HR MIN TEMP:  76; 6HR MAX TEMP:  82;

NORTH PHILA    MOCLDY    76  70  82 SE3       30.05F
BLUE BELL      MOCLDY    75  72  88 SE3       30.03F
DOYLESTOWN     CLOUDY    72  71  97 VRB5      30.04F
QUAKERTOWN*    CLOUDY    73  72  94 E3        30.05F
POTTSTOWN      CLOUDY    74  72  93 CALM      30.05S
LANCASTER      MOCLDY    71  70  96 CALM      30.02F
COATESVILLE    MOCLDY    73  73 100 CALM      30.05F FOG
READING        CLOUDY    74  71  91 CALM      30.02F
6HR MIN TEMP:  74; 6HR MAX TEMP:  76; 6HR PCP:  0.03;

ALLENTOWN      CLOUDY    74  71  91 SE6       30.04F
6HR MIN TEMP:  74; 6HR MAX TEMP:  78; 6HR PCP:  0.22;

MOUNT POCONO   FOG       68  50  53 SE7       30.10F VSB 1/4
6HR MIN TEMP:  68; 6HR MAX TEMP:  71; 6HR PCP: TRACE;

HAZLETON       CLOUDY    72  70  94 SE7       30.09F
WILKES BARRE   MOCLDY    74  67  78 VRB5      30.04F

$$
DEZALL-MDZ008-012-015-019-020-070700-
DELAWARE AND EASTERN MARYLAND

CITY           SKY/WX    TMP DP  RH WIND       PRES   REMARKS
WILMINGTON     MOCLDY    76  74  93 S10       30.03S
6HR MIN TEMP:  76; 6HR MAX TEMP:  79;

DOVER          PTCLDY    75  75 100 S10       30.02F
GEORGETOWN     MOCLDY    75  74  96 S7        30.05F
6HR MIN TEMP:  75; 6HR MAX TEMP:  80;

EASTON         PTCLDY    74  74 100 S5        30.07F
PATUXENT       CLEAR     74  72  93 CALM      30.03F
OCEAN CITY     MOCLDY    76  74  93 SW6       30.05F
WALLOPS ISLAND MOCLDY    78  77  96 S10       30.06F
CAMBRIDGE      PTCLDY    73  72  94 CALM      30.03F
SALISBURY      PTCLDY    75  74  96 S6        30.04F

$$
PAZ001-021-NYZ056-072-MDZ011-DCZ001-070700-
OTHER NEARBY LOCATIONS

CITY           SKY/WX    TMP DP  RH WIND       PRES   REMARKS
HARRISBURG     PTCLDY    71  69  93 SE5       30.00F
STATE COLLEGE  CLOUDY    69  68  97 W5        30.03F
WILLIAMSPORT   LGT RAIN  73  70  90 CALM      29.99F FOG
BINGHAMTON     PTCLDY    68  66  93 S8        30.06S
NEW YORK CITY  CLOUDY    76  69  79 CALM      30.10F
BALTIMORE      PTCLDY    72  72 100 CALM      30.02S
WASHINGTON DC  PTCLDY    76  71  85 S7        30.03S

$$



USA.gov is the U.S. government's official web portal to all federal, state and local government web resources and services.